[[{"header":{"parameterUnit":"m.s-1","parameterCategory":1,"la1":30.2991,"la2":30.254,"lo1":-89.0895,"lo2":-89.0444,"dy":0.0017,"dx":0.0017,"nx":28,"ny":28,"refTime":"2025-09-14T09:00:00:Z","depth":0,"parameterNumber":2,"parameterNumberName":"U-component_of_WINDS"},"data":[0,0,0,0,0,0,0,0,0,0,0,0,0,0,0,0,0,0,0,0,0,0,0,0,0,0,0,0,0,0,0,0,0,0,0,0,0,0,0,0,0,0,0,0,0,0,0,0,0,0,0,0,0,0,0,0,0,0,1.2268,1.2269,0,1.2346,1.2346,1.2347,1.2381,1.2381,1.2381,1.2381,1.2458,1.246,1.2462,0,0,0,0,0,0,0,0,0,0,0,0,0,1.2145,1.2147,1.2268,1.2269,1.227,1.2345,1.2346,1.2348,1.2381,1.2381,1.2381,1.238,1.2457,1.246,1.2462,0,0,0,0,0,0,0,0,0,0,0,0,0,1.2208,1.2148,1.2268,1.2296,1.2299,1.2345,1.2347,1.2348,1.2381,1.2381,1.2381,1.238,1.2456,1.246,1.2463,1.2487,0,0,1.2473,1.2474,0,0,0,0,0,0,0,0,1.2205,1.2213,1.2291,1.2294,1.2298,1.2353,1.2332,1.2394,1.2381,1.235,1.2381,1.238,1.2423,1.2429,1.2444,1.249,1.2494,1.2473,1.2475,1.2476,1.2477,0,0,0,0,0,0,0,1.22,1.221,1.2299,1.2292,1.2296,1.2303,1.2312,1.2344,1.2386,1.2352,1.2355,1.2364,1.2425,1.2441,1.2446,1.2495,1.2473,1.2476,1.2478,1.2479,1.2563,1.2563,0,0,0,0,0,0,1.2192,1.2206,1.2296,1.2301,1.225,1.2306,1.2315,1.2336,1.2386,1.2394,1.2364,1.2365,1.2435,1.2442,1.2449,1.248,1.2476,1.248,1.2481,1.2563,1.2563,1.2563,0,0,0,0,0,0,1.2189,1.2199,1.2293,1.2254,1.2267,1.2308,1.233,1.2337,1.2353,1.2395,1.2402,1.2372,1.2436,1.2444,1.2477,1.2483,1.2481,1.2484,1.2562,1.2563,1.2563,1.2541,0,0,0,0,0,0,1.2185,1.2198,1.2208,1.2254,1.2268,1.232,1.2331,1.2339,1.2359,1.2361,1.2405,1.2412,1.2436,1.2472,1.248,1.2487,1.2487,1.2562,1.2563,1.2563,1.2542,1.2541,1.254,0,0,0,0,0,1.2181,1.2199,1.2209,1.222,1.2282,1.2321,1.2329,1.2357,1.2359,1.2369,1.2396,1.2411,1.2481,1.2475,1.2485,1.2493,1.2562,1.2562,1.2563,1.2542,1.2541,1.254,0,0,0,0,0,0,1.2153,1.2206,1.2217,1.2251,1.2281,1.2326,1.234,1.2355,1.2385,1.2385,1.2418,1.2428,1.2457,1.2478,1.2471,1.2518,1.2522,1.2525,1.2503,1.2503,1.2502,1.2496,1.2489,0,0,0,0,0,1.215,1.2178,1.2222,1.2248,1.2262,1.2298,1.2316,1.2335,1.2367,1.238,1.2409,1.2439,1.2468,1.2487,1.2515,1.2545,1.2554,1.2555,1.2554,1.2554,1.2555,1.2572,1.2572,1.2565,1.2565,1.2565,0,0,1.2146,1.2178,1.2194,1.2243,1.2268,1.2295,1.2309,1.2337,1.2357,1.2384,1.2417,1.2439,1.2475,1.2506,1.2521,1.2524,1.2559,1.2554,1.2553,1.2556,1.2572,1.2573,1.2574,1.2566,1.2566,1.2566,0,0,1.2151,1.2179,1.2203,1.2228,1.2267,1.2291,1.2296,1.2339,1.2355,1.2388,1.2409,1.2433,1.2482,1.2507,1.2525,1.2539,1.2553,1.2547,1.2544,1.2559,1.256,1.256,1.2565,1.2566,1.2549,1.2549,1.2549,0,1.2141,1.2183,1.2213,1.224,1.2261,1.2287,1.231,1.2333,1.2379,1.2392,1.2395,1.2457,1.2483,1.252,1.2523,1.2537,1.2544,1.2543,1.2557,1.2558,1.2559,1.2564,1.2566,1.2548,1.2548,1.2548,1.2548,0,1.2168,1.2197,1.2211,1.2255,1.2277,1.2302,1.2335,1.2354,1.237,1.2393,1.2426,1.2458,1.2493,1.2503,1.252,1.2542,1.2543,1.2551,1.2557,1.2559,1.2563,1.2565,1.2546,1.2547,1.2547,1.2547,0,0,1.2159,1.2219,1.2223,1.2243,1.2287,1.231,1.2335,1.2371,1.2386,1.2416,1.2438,1.2478,1.2486,1.2507,1.2527,1.254,1.2548,1.2547,1.2548,1.2546,1.2574,1.2568,1.2569,1.2558,1.2558,1.2559,1.2571,0,1.217,1.2219,1.2246,1.2282,1.2308,1.2333,1.2355,1.2384,1.2406,1.2431,1.2454,1.2483,1.2491,1.2504,1.2519,1.2544,1.2554,1.2544,1.2578,1.2579,1.2568,1.2572,1.2565,1.2576,1.2573,1.2574,1.2574,0,1.2191,1.2221,1.226,1.2301,1.2313,1.2332,1.2366,1.239,1.2423,1.2437,1.2461,1.248,1.2507,1.2509,1.2547,1.2539,1.2554,1.2569,1.257,1.2574,1.2577,1.2576,1.258,1.2581,1.2577,1.2577,1.2577,0,1.218,1.223,1.226,1.2276,1.2324,1.2337,1.2358,1.239,1.2409,1.2439,1.2451,1.2483,1.25,1.2524,1.2551,1.255,1.2585,1.259,1.2598,1.2597,1.2604,1.2603,1.261,1.2614,1.2614,1.2614,1.2614,0,1.219,1.2213,1.2256,1.2274,1.23,1.233,1.2355,1.2377,1.2406,1.2428,1.2451,1.2471,1.2505,1.2529,1.255,1.2577,1.2585,1.2597,1.2603,1.2596,1.2594,1.2606,1.2606,1.2614,1.2614,1.2614,1.2614,0,1.2182,1.2212,1.2246,1.2288,1.23,1.2317,1.2353,1.2371,1.2394,1.2422,1.243,1.2465,1.2495,1.2524,1.2563,1.2577,1.2604,1.2611,1.2594,1.2597,1.2602,1.2601,1.2617,1.2621,1.2622,1.2622,1.2622,0,1.2187,1.2205,1.2249,1.2266,1.2286,1.2313,1.2333,1.2363,1.2382,1.242,1.2433,1.2465,1.2492,1.2538,1.2567,1.2597,1.2605,1.2608,1.2609,1.2601,1.2605,1.2603,1.2605,1.2607,1.2607,1.2607,1.2607,0,1.2192,1.2205,1.2233,1.2266,1.2289,1.2316,1.2343,1.2356,1.239,1.2411,1.2442,1.2462,1.2503,1.2534,1.2567,1.2587,1.2603,1.2606,1.261,1.2603,1.2592,1.2597,1.2592,1.2606,1.2606,1.2606,1.2606,1.2606,1.219,1.2207,1.2241,1.2271,1.2295,1.232,1.2339,1.2364,1.2391,1.2426,1.2442,1.2473,1.2504,1.2551,1.2571,1.2595,1.2599,1.2603,1.2605,1.2606,1.2604,1.2587,1.2601,1.2601,1.2601,1.2601,1.2601,0,1.2196,1.2219,1.2246,1.2284,1.2307,1.232,1.2351,1.237,1.2397,1.2425,1.2451,1.2486,1.2515,1.2546,1.2578,1.2591,1.2599,1.2598,1.2597,1.2602,1.2599,1.2593,1.2591,1.2591,1.2591,1.2591,1.2591,1.2591,1.2202,1.2231,1.2249,1.229,1.2312,1.2343,1.236,1.2383,1.2406,1.2444,1.2469,1.2489,1.2518,1.2551,1.2579,1.2587,1.2597,1.2595,1.2605,1.2601,1.2602,1.2603,1.2597,1.2597,1.2597,1.2606,1.2606,1.2606]},{"header":{"parameterUnit":"m.s-1","parameterCategory":1,"la1":30.2991,"la2":30.254,"lo1":-89.0895,"lo2":-89.0444,"dy":0.0017,"dx":0.0017,"nx":28,"ny":28,"refTime":"2025-09-14T09:00:00:Z","depth":0,"parameterNumber":3,"parameterNumberName":"V-component_of_WINDS"},"data":[0,0,0,0,0,0,0,0,0,0,0,0,0,0,0,0,0,0,0,0,0,0,0,0,0,0,0,0,0,0,0,0,0,0,0,0,0,0,0,0,0,0,0,0,0,0,0,0,0,0,0,0,0,0,0,0,0,0,2.4529,2.4529,0,2.447,2.4469,2.4468,2.4395,2.4394,2.4393,2.4392,2.433,2.4329,2.4329,0,0,0,0,0,0,0,0,0,0,0,0,0,2.458,2.4579,2.453,2.4529,2.4528,2.447,2.4469,2.4468,2.4396,2.4394,2.4393,2.4392,2.433,2.4329,2.4329,0,0,0,0,0,0,0,0,0,0,0,0,0,2.4543,2.4579,2.453,2.4485,2.448,2.447,2.4469,2.4468,2.4396,2.4394,2.4393,2.4391,2.433,2.4329,2.4329,2.4357,0,0,2.4326,2.4325,0,0,0,0,0,0,0,0,2.4545,2.4541,2.4492,2.4488,2.4483,2.4438,2.4464,2.4431,2.4396,2.4428,2.4392,2.439,2.4367,2.4363,2.4356,2.4354,2.4352,2.4326,2.4325,2.4325,2.4325,0,0,0,0,0,0,0,2.4548,2.4543,2.4506,2.4492,2.4486,2.4467,2.446,2.4457,2.4408,2.4425,2.442,2.4414,2.4364,2.4357,2.4354,2.4351,2.4326,2.4325,2.4324,2.4324,2.4367,2.4369,0,0,0,0,0,0,2.4557,2.4546,2.4508,2.4504,2.451,2.4468,2.446,2.4454,2.4408,2.4399,2.4415,2.441,2.4359,2.4355,2.4351,2.438,2.4325,2.4324,2.4323,2.4365,2.4367,2.4369,0,0,0,0,0,0,2.4558,2.4554,2.451,2.4523,2.4516,2.4469,2.4463,2.4454,2.4446,2.44,2.4391,2.4416,2.4358,2.4353,2.4356,2.4377,2.4324,2.4323,2.4363,2.4366,2.4368,2.4438,0,0,0,0,0,0,2.456,2.4555,2.4566,2.4524,2.4516,2.4516,2.4464,2.4454,2.4445,2.4438,2.4399,2.4391,2.4356,2.4357,2.4355,2.4374,2.4322,2.4361,2.4365,2.4368,2.4434,2.4443,2.4451,0,0,0,0,0,2.4562,2.4588,2.4567,2.4563,2.4528,2.4518,2.4513,2.4472,2.4447,2.4457,2.4427,2.4392,2.4375,2.4358,2.4355,2.4375,2.436,2.4364,2.4367,2.443,2.4441,2.445,0,0,0,0,0,0,2.4634,2.4582,2.4558,2.4571,2.4549,2.4505,2.4517,2.4486,2.447,2.4465,2.4415,2.4407,2.4415,2.4395,2.4378,2.4399,2.4362,2.4365,2.4411,2.4421,2.4429,2.4433,2.4321,0,0,0,0,0,2.4651,2.4647,2.4602,2.4618,2.4609,2.4565,2.4559,2.4529,2.4505,2.4495,2.4465,2.4442,2.4431,2.4425,2.4413,2.4431,2.442,2.4443,2.4451,2.4458,2.4461,2.4467,2.4476,2.4382,2.4382,2.4382,0,0,2.4687,2.4658,2.4659,2.4632,2.4612,2.4608,2.4558,2.4556,2.4552,2.4495,2.4495,2.4473,2.4444,2.4454,2.4457,2.4438,2.4485,2.4463,2.4469,2.4468,2.4472,2.4481,2.4489,2.4384,2.4384,2.4383,0,0,2.475,2.4729,2.4739,2.4719,2.4689,2.466,2.4662,2.4623,2.4606,2.4606,2.4562,2.4557,2.454,2.452,2.4508,2.4563,2.4529,2.456,2.4604,2.461,2.4617,2.4624,2.4641,2.4649,2.4564,2.4564,2.4564,0,2.4798,2.4791,2.4748,2.4749,2.4738,2.4685,2.4695,2.4678,2.4645,2.4639,2.4617,2.4594,2.4571,2.4575,2.4588,2.4581,2.4581,2.4564,2.462,2.4626,2.4631,2.4647,2.4654,2.4568,2.4567,2.4567,2.4567,0,2.4851,2.4847,2.4858,2.4828,2.4818,2.4824,2.4781,2.4776,2.4748,2.472,2.472,2.4691,2.467,2.467,2.4642,2.4669,2.4658,2.4629,2.4591,2.4644,2.4659,2.4665,2.4573,2.4572,2.4571,2.457,0,0,2.4956,2.4902,2.4907,2.4892,2.4854,2.485,2.4852,2.4833,2.4829,2.4808,2.4808,2.4794,2.4767,2.4754,2.4723,2.4729,2.4772,2.4699,2.4698,2.4712,2.4798,2.4819,2.4827,2.475,2.4751,2.4752,2.48,0,2.5011,2.5012,2.4974,2.4985,2.498,2.493,2.4932,2.4909,2.4883,2.4874,2.4846,2.4836,2.4802,2.4793,2.4797,2.4766,2.4788,2.4762,2.4748,2.4748,2.4755,2.4834,2.4857,2.4903,2.4805,2.4806,2.4807,0,2.5075,2.5058,2.5069,2.503,2.5026,2.5029,2.5007,2.4999,2.4972,2.4952,2.4937,2.4902,2.4901,2.4866,2.4862,2.4845,2.4837,2.4821,2.4822,2.4818,2.478,2.4831,2.4917,2.4924,2.4816,2.4815,2.4814,0,2.5149,2.5128,2.5132,2.5121,2.5076,2.5078,2.506,2.503,2.5021,2.5002,2.4994,2.4976,2.4965,2.4951,2.4911,2.489,2.4911,2.4874,2.4894,2.4895,2.4899,2.4899,2.4984,2.4897,2.4897,2.4897,2.4897,0,2.5213,2.5221,2.5164,2.5166,2.5174,2.5129,2.5137,2.5114,2.5088,2.5083,2.504,2.5036,2.4985,2.4976,2.4945,2.4945,2.4941,2.4925,2.4916,2.4928,2.493,2.4921,2.4916,2.4899,2.4898,2.4898,2.4898,0,2.5296,2.5259,2.5259,2.5216,2.5206,2.5213,2.5176,2.5175,2.5147,2.5142,2.5138,2.5094,2.508,2.504,2.5016,2.4995,2.5004,2.4989,2.5014,2.5008,2.503,2.5028,2.511,2.5118,2.5028,2.5029,2.503,0,2.5339,2.5344,2.5302,2.5296,2.5279,2.5271,2.5261,2.5216,2.5207,2.5176,2.5179,2.5162,2.5146,2.5127,2.5091,2.5073,2.5056,2.5086,2.5053,2.5063,2.5054,2.5054,2.5053,2.5093,2.5094,2.5095,2.5096,0,2.5418,2.5399,2.5386,2.5367,2.5356,2.5339,2.5319,2.5316,2.5267,2.5259,2.5244,2.5232,2.5208,2.5191,2.5167,2.5146,2.5112,2.5107,2.511,2.5121,2.5135,2.5126,2.5032,2.5105,2.5104,2.5103,2.5103,2.5102,2.5481,2.5483,2.5453,2.544,2.542,2.5402,2.5399,2.5371,2.5358,2.5335,2.531,2.5298,2.5269,2.5233,2.5214,2.5204,2.5186,2.5191,2.5192,2.5194,2.5199,2.5138,2.5199,2.5199,2.5199,2.5199,2.5198,0,2.5556,2.5535,2.5524,2.5497,2.5486,2.5456,2.5432,2.5425,2.5415,2.5391,2.5376,2.5359,2.5343,2.5306,2.5286,2.5284,2.5268,2.528,2.5279,2.5274,2.5217,2.5215,2.5293,2.5293,2.5293,2.5293,2.5293,2.5293,2.5594,2.5595,2.5573,2.5563,2.5541,2.5529,2.5518,2.5501,2.5481,2.5464,2.545,2.5427,2.5397,2.5373,2.5356,2.5346,2.5339,2.5356,2.5341,2.5287,2.5278,2.527,2.5268,2.5356,2.5356,2.5399,2.5399,2.5399]}]]